Tracking 26218 objects as of 27-Sep-2022
HD Live streaming from Space Station
objects crossing your sky now

YAOGAN-35 05C

Track YAOGAN-35 05C now!
10-day predictions


NORAD ID: 53763
Int'l Code: 2022-109D
Perigee: 499.4 km
Apogee: 506.8 km
Inclination: 35.0 °
Period: 94.5 minutes
Semi major axis: 6874 km
RCS: Unknown
Launch date: September 6, 2022
Source: People's Republic of China (PRC)
Launch site: Xichang Space Center, China (XSC)
aabbcc
Your satellite tracking list
Your tracking list is empty




NASA's NSSDC Master Catalog

Two Line Element Set (TLE):
1 53763U 22109D   22270.42121529  .00006942  00000-0  28705-3 0  9993
2 53763  34.9973 251.9060 0005384 108.6525  24.0904 15.23268027  3201
Source of the keplerian elements: AFSPC